Tracking 19279 objects as of 14-Nov-2018
HD Live streaming from Space Station
objects crossing your sky now

FLOCK 3P 67

Track FLOCK 3P 67 now!
10-day predictions
FLOCK 3P 67 is classified as:


NORAD ID: 42002
Int'l Code: 2017-008BG
Perigee: 491.4 km
Apogee: 501.7 km
Inclination: 97.4 °
Period: 94.4 minutes
Semi major axis: 6867 km
RCS: Unknown
Launch date: February 15, 2017
Source: United States (US)
Launch site: SRIHARIKOTA (SRI)
aabbcc
Your satellite tracking list
Your tracking list is empty




NASA's NSSDC Master Catalog

Two Line Element Set (TLE):
1 42002U 17008BG  18317.48789962 +.00002613 +00000-0 +10617-3 0  9997
2 42002 097.4343 021.6552 0007489 192.8645 167.2403 15.25445315096872
Source of the keplerian elements: AFSPC